Retour au catalogue

WARATAH SEED-1

ActifScienceSSO
NORAD 60469·PAYLOAD·🇦🇺 Australia

Lancé Aug 16, 2024 depuis Vandenberg Space Force Base

Loading…

Prochains Passages (prochaines 24 heures)

TLE

FraisSource: Space-Track

Époque: Sep 13, 2026, 17:15 UTC

1 60469U 24149B   26256.71921512  .00010194  00000-0  27522-3 0  9990
2 60469  97.3635 337.4780 0000279 233.7165 126.4055 15.37958518115717

Suivez WARATAH SEED-1 en temps réel avec AllMySat

Download on the App Store